Temporada 2024 · Ronda 9

Canadian Grand Prix

2024-06-09 · Circuito Gilles Villeneuve · Canada · Canadian Grand Prix · 70Lap · 305.270km
Red Bull 1:45:47.927
McLaren +3.879
Victoria de equipo 28pt P2 · P5
Mercedes +4.317
Victoria de equipo 28pt P3 · P4
Vuelta rápida
1:14.856 · L70
Abandono
5
Carlos Sainz L52 Alexander Albon L52 Sergio Pérez L51 Charles Leclerc L40 Logan Sargeant L23
Clima
18°/25°
media aire/pista · lluvia · humedad 73%
Coche de seguridad
2
desplegado en la vuelta L25, L54
Uso de neumáticos Dirección de carrera
Storylines · This Grand Prix & circuit
Más victorias en este GP
Lewis Hamilton activo 7 victorias
Michael Schumacher 7 victorias
Conversión pole-victoria 22/45 48.9%
Most SC/VSC · all-time P6
Final más ajustado · all-time P8
Most lead changes · all-time P12
Circuito Info
Circuito Gilles Villeneuve Montreal, Canada
70Lap 305.270km 45 carreras held (1978–) Récord de vuelta 1:13.078 · Valtteri Bottas (2019)
Récords Watch · Active drivers ranked at this Grand Prix
P1 Lewis Hamilton 7 victorias · GP #1
P3 Max Verstappen 3 victorias · → Michael Schumacher -4
P10 Fernando Alonso 1 victorias · → Sebastian Vettel -1
P1 Fernando Alonso 21 salidas · GP #1
P4 Lewis Hamilton 17 salidas · → Rubens Barrichello -1
P12 Nico Hülkenberg 13 salidas · → Felipe Massa -1
Carrera Trace · position by lap
SC · vueltas 25–29 SC · vueltas 54–58 salida parada SG 1 6 11 16 21 26 31 36 41 46 51 56 61 66 Verstappen · parada en boxes L25 Verstappen · parada en boxes L45 Verstappen VER Verstappen VER Norris · parada en boxes L26 Norris · parada en boxes L47 Norris NOR Norris NOR Russell · parada en boxes L25 Russell · parada en boxes L45 Russell · parada en boxes L54 Russell RUS Russell RUS Hamilton · parada en boxes L25 Hamilton · parada en boxes L43 Hamilton · parada en boxes L54 Hamilton HAM Hamilton HAM Piastri · parada en boxes L25 Piastri · parada en boxes L44 Piastri PIA Piastri PIA Alonso · parada en boxes L25 Alonso · parada en boxes L44 Alonso ALO Alonso ALO Stroll · parada en boxes L25 Stroll · parada en boxes L44 Stroll STR Stroll STR Ricciardo · parada en boxes L26 · sanción cumplida Ricciardo · parada en boxes L43 Ricciardo RIC Ricciardo RIC Gasly · parada en boxes L25 Gasly · parada en boxes L40 Gasly GAS Gasly GAS Ocon · parada en boxes L44 Ocon OCO Ocon OCO Hülkenberg · parada en boxes L12 Hülkenberg · parada en boxes L25 Hülkenberg · parada en boxes L44 Hülkenberg HUL Hülkenberg HUL Magnussen · parada en boxes L7 Magnussen · parada en boxes L25 Magnussen · parada en boxes L41 Magnussen · parada en boxes L54 Magnussen MAG Magnussen MAG Bottas · parada en boxes L42 Bottas BOT Bottas BOT Tsunoda · parada en boxes L44 Tsunoda TSU Tsunoda TSU Zhou · parada en boxes L24 Zhou · parada en boxes L44 Zhou · parada en boxes L52 Zhou ZHO Zhou ZHO Sainz · parada en boxes L25 Sainz · parada en boxes L43 Sainz · abandono L52 Sainz SAI Sainz SAI Albon · parada en boxes L25 Albon · parada en boxes L44 Albon · abandono L52 Albon ALB Albon ALB Pérez · parada en boxes L25 Pérez · parada en boxes L43 Pérez · abandono L51 Pérez PER Pérez PER Leclerc · parada en boxes L25 Leclerc · parada en boxes L28 Leclerc · parada en boxes L31 Leclerc · abandono L40 Leclerc LEC Leclerc LEC Sargeant · abandono L23 Sargeant SAR Sargeant SAR
SC·VSC parada en boxes sanción cumplida en boxes SG Parrilla de salida coche detenido posición en cada vuelta (desde 1996)
PosPilotoTeamParrillaVueltaTiempo / EstadoPuntos
1 1 Max Verstappen Red Bull 2 70 1:45:47.927 25
2 4 Lando Norris McLaren 3 70 +3.879 18
3 63 George Russell Mercedes 1 70 +4.317 15
4 44 Lewis Hamilton FL Mercedes 7 70 +4.915 13
5 81 Oscar Piastri McLaren 4 70 +10.199 10
6 14 Fernando Alonso Aston Martin 6 70 +17.510 8
7 18 Lance Stroll Aston Martin 9 70 +23.625 6
8 3 Daniel Ricciardo RB F1 Team 5 70 +28.672 4
9 10 Pierre Gasly Alpine F1 Team 15 70 +30.021 2
10 31 Esteban Ocon Alpine F1 Team 18 70 +30.313 1
11 27 Nico Hülkenberg Haas F1 Team 17 70 +30.824
12 20 Kevin Magnussen Haas F1 Team 14 70 +31.253
13 77 Valtteri Bottas Sauber 19 70 +40.487
14 22 Yuki Tsunoda RB F1 Team 8 70 +52.694
15 24 Guanyu Zhou Sauber 20 69 +53.528
R 55 Carlos Sainz Ferrari 12 52 Retired
R 23 Alexander Albon Williams 10 52 Retired
R 11 Sergio Pérez Red Bull 16 51 Retired
R 16 Charles Leclerc Ferrari 11 40 Retired
R 2 Logan Sargeant Williams 13 23 Retired
PosPilotoTeamQ1Q2Q3Diferencia con la pole
1 63 George Russell Mercedes 1:13.013 1:11.742 1:12.000 POLE Q2
2 1 Max Verstappen Red Bull 1:12.360 1:12.549 1:12.000 +0.258 Q3
3 4 Lando Norris McLaren 1:12.959 1:12.201 1:12.021 +0.279 Q3
4 81 Oscar Piastri McLaren 1:12.907 1:12.462 1:12.103 +0.361 Q3
5 3 Daniel Ricciardo RB F1 Team 1:13.240 1:12.572 1:12.178 +0.436 Q3
6 14 Fernando Alonso Aston Martin 1:13.117 1:12.635 1:12.228 +0.486 Q3
7 44 Lewis Hamilton Mercedes 1:12.851 1:11.979 1:12.280 +0.237 Q2
8 22 Yuki Tsunoda RB F1 Team 1:12.748 1:12.303 1:12.414 +0.561 Q2
9 18 Lance Stroll Aston Martin 1:13.088 1:12.659 1:12.701 +0.917 Q2
10 23 Alexander Albon Williams 1:12.896 1:12.485 1:12.796 +0.743 Q2
11 16 Charles Leclerc Ferrari 1:13.107 1:12.691 +0.949 Q2
12 55 Carlos Sainz Ferrari 1:13.038 1:12.728 +0.986 Q2
13 2 Logan Sargeant Williams 1:13.063 1:12.736 +0.994 Q2
14 20 Kevin Magnussen Haas F1 Team 1:13.217 1:12.916 +1.174 Q2
15 10 Pierre Gasly Alpine F1 Team 1:13.289 1:12.940 +1.198 Q2
16 11 Sergio Pérez Red Bull 1:13.326 +1.584 Q1
17 77 Valtteri Bottas Sauber 1:13.366 +1.624 Q1
18 31 Esteban Ocon Alpine F1 Team 1:13.435 +1.693 Q1
19 27 Nico Hülkenberg Haas F1 Team 1:13.978 +2.236 Q1
20 24 Guanyu Zhou Sauber 1:14.292 +2.550 Q1
Parrilla de salida
Oficial
Final grid as clasificado, including any desde el pit lane salidas. Source: Jolpica-F1. The arrow compares the grid slot with the clasificación classification; hover a drop to see the stewards document behind it.
No hay datos de esta sesión.
PosPilotoMejor vueltaDiferenciaVueltas
1 4 Lando Norris 1:24.435 8
2 55 Carlos Sainz 1:24.763 +0.328 11
3 16 Charles Leclerc 1:25.306 +0.871 11
4 44 Lewis Hamilton 1:25.970 +1.535 11
5 1 Max Verstappen 1:26.502 +2.067 10
6 81 Oscar Piastri 1:26.754 +2.319 7
7 10 Pierre Gasly 1:27.584 +3.149 8
8 77 Valtteri Bottas 1:27.670 +3.235 11
9 11 Sergio Pérez 1:28.058 +3.623 10
10 63 George Russell 1:28.541 +4.106 9
11 3 Daniel Ricciardo 1:28.582 +4.147 9
12 22 Yuki Tsunoda 1:28.723 +4.288 9
13 20 Kevin Magnussen 1:29.052 +4.617 8
14 27 Nico Hülkenberg 1:32.826 +8.391 5
15 14 Fernando Alonso 1:33.411 +8.976 4
16 2 Logan Sargeant 1:36.586 +12.151 5
17 18 Lance Stroll 1:40.530 +16.095 4
18 24 Guanyu Zhou 1:47.363 +22.928 4
19 23 Alexander Albon 1:47.907 +23.472 4
20 61 Jack Doohan 2:06.267 +41.832 3
Classified by best lap · source OpenF1 (2023+)
PosPilotoMejor vueltaDiferenciaVueltas
1 14 Fernando Alonso 1:15.810 25
2 63 George Russell 1:16.273 +0.463 24
3 18 Lance Stroll 1:16.464 +0.654 27
4 16 Charles Leclerc 1:16.556 +0.746 24
5 3 Daniel Ricciardo 1:16.731 +0.921 23
6 20 Kevin Magnussen 1:16.773 +0.963 15
7 44 Lewis Hamilton 1:16.908 +1.098 27
8 22 Yuki Tsunoda 1:16.951 +1.141 22
9 23 Alexander Albon 1:16.977 +1.167 22
10 11 Sergio Pérez 1:17.041 +1.231 19
11 31 Esteban Ocon 1:17.417 +1.607 31
12 2 Logan Sargeant 1:17.496 +1.686 22
13 55 Carlos Sainz 1:17.722 +1.912 27
14 77 Valtteri Bottas 1:17.817 +2.007 21
15 27 Nico Hülkenberg 1:17.903 +2.093 20
16 81 Oscar Piastri 1:19.008 +3.198 20
17 24 Guanyu Zhou 1:19.087 +3.277 17
18 1 Max Verstappen 1:19.311 +3.501 4
19 10 Pierre Gasly 1:20.789 +4.979 26
20 4 Lando Norris 1:20.843 +5.033 21
Classified by best lap · source OpenF1 (2023+)
PosPilotoMejor vueltaDiferenciaVueltas
1 44 Lewis Hamilton 1:12.549 31
2 1 Max Verstappen 1:12.923 +0.374 32
3 63 George Russell 1:12.957 +0.408 33
4 18 Lance Stroll 1:13.026 +0.477 27
5 81 Oscar Piastri 1:13.266 +0.717 32
6 3 Daniel Ricciardo 1:13.279 +0.730 34
7 4 Lando Norris 1:13.293 +0.744 32
8 14 Fernando Alonso 1:13.340 +0.791 30
9 11 Sergio Pérez 1:13.342 +0.793 29
10 16 Charles Leclerc 1:13.349 +0.800 28
11 20 Kevin Magnussen 1:13.439 +0.890 30
12 55 Carlos Sainz 1:13.570 +1.021 33
13 77 Valtteri Bottas 1:13.642 +1.093 32
14 2 Logan Sargeant 1:13.663 +1.114 31
15 22 Yuki Tsunoda 1:13.716 +1.167 31
16 10 Pierre Gasly 1:13.737 +1.188 29
17 27 Nico Hülkenberg 1:13.777 +1.228 27
18 23 Alexander Albon 1:13.880 +1.331 22
19 31 Esteban Ocon 1:14.075 +1.526 31
20 24 Guanyu Zhou 1:18.656 +6.107 4
Classified by best lap · source OpenF1 (2023+)
#PilotoTiempo de vueltaVuelta
1 44 Lewis Hamilton 1:14.856 L70
2 63 George Russell 1:14.895 L70
3 44 Lewis Hamilton 1:15.074 L65
4 63 George Russell 1:15.363 L67
5 63 George Russell 1:15.439 L68
6 63 George Russell 1:15.479 L69
7 4 Lando Norris 1:15.558 L67
8 1 Max Verstappen 1:15.569 L70
9 63 George Russell 1:15.630 L65
10 1 Max Verstappen 1:15.742 L68
Top 10 más rápida race vueltas — #1 is the más rápida lap of la carrera(FL).
Paradas · cómo se comparan
25s 30s 35s 40s 45s 50s 55s 60s 65s mediana 24.8s Lando Norris · L26 · 23.423s Oscar Piastri · L44 · 23.476s Lewis Hamilton · L25 · 23.762s Daniel Ricciardo · L43 · 23.860s Oscar Piastri · L25 · 23.977s Lando Norris · L47 · 23.983s Charles Leclerc · L25 · 24.031s George Russell · L25 · 24.044s Carlos Sainz · L43 · 24.125s Lewis Hamilton · L43 · 24.226s Nico Hülkenberg · L12 · 24.233s Max Verstappen · L45 · 24.246s Lance Stroll · L25 · 24.284s Max Verstappen · L25 · 24.306s Fernando Alonso · L44 · 24.346s Pierre Gasly · L40 · 24.408s Sergio Pérez · L43 · 24.423s Esteban Ocon · L44 · 24.495s Charles Leclerc · L31 · 24.629s Nico Hülkenberg · L25 · 24.668s Nico Hülkenberg · L44 · 24.751s Alexander Albon · L25 · 24.753s Alexander Albon · L44 · 24.804s Kevin Magnussen · L41 · 24.833s Pierre Gasly · L25 · 24.911s Valtteri Bottas · L42 · 24.929s Lance Stroll · L44 · 25.025s George Russell · L45 · 25.431s Yuki Tsunoda · L44 · 25.569s Guanyu Zhou · L24 · 25.598s Fernando Alonso · L25 · 25.788s Kevin Magnussen · L25 · 26.794s Kevin Magnussen · L54 · 26.845s Carlos Sainz · L25 · 27.626s George Russell · L54 · 28.157s Guanyu Zhou · L52 · 28.375s Lewis Hamilton · L54 · 28.817s Daniel Ricciardo · L26 · 30.298s · sanción cumplida Kevin Magnussen · L7 · 30.472s Sergio Pérez · L25 · 33.762s Charles Leclerc · L28 · 47.186s Guanyu Zhou · L44 · 65.564s
más rápida 23.423s Lando Norris más lenta 65.564s Guanyu Zhou sanción cumplida tiempo de paso por el desde el pit lane — un punto por parada
PilotoParadaVueltaTiempoPaso por el desde el pit lane
20 Kevin Magnussen 1 7 14:14:25 30.472s
27 Nico Hülkenberg 1 12 14:22:33 24.233s
24 Guanyu Zhou 1 24 14:40:42 25.598s
55 Carlos Sainz 1 25 14:42:01 27.626s
81 Oscar Piastri 1 25 14:40:53 23.977s
11 Sergio Pérez 1 25 14:42:09 33.762s
63 George Russell 1 25 14:40:52 24.044s
18 Lance Stroll 1 25 14:41:47 24.284s
1 Max Verstappen 1 25 14:40:52 24.306s
16 Charles Leclerc 1 25 14:41:58 24.031s
23 Alexander Albon 1 25 14:41:54 24.753s
14 Fernando Alonso 1 25 14:41:12 25.788s
10 Pierre Gasly 1 25 14:42:06 24.911s
44 Lewis Hamilton 1 25 14:41:13 23.762s
27 Nico Hülkenberg 2 25 14:42:21 24.668s
20 Kevin Magnussen 2 25 14:42:03 26.794s
3 Daniel Ricciardo 1 26 14:43:37 30.298s
4 Lando Norris 1 26 14:42:44 23.423s
16 Charles Leclerc 2 28 14:47:31 47.186s
16 Charles Leclerc 3 31 14:53:31 24.629s
10 Pierre Gasly 2 40 15:05:55 24.408s
20 Kevin Magnussen 3 41 15:07:24 24.833s
77 Valtteri Bottas 1 42 15:08:45 24.929s
11 Sergio Pérez 2 43 15:10:12 24.423s
44 Lewis Hamilton 2 43 15:09:46 24.226s
55 Carlos Sainz 2 43 15:10:12 24.125s
3 Daniel Ricciardo 2 43 15:10:10 23.860s
22 Yuki Tsunoda 1 44 15:11:26 25.569s
31 Esteban Ocon 1 44 15:11:32 24.495s
23 Alexander Albon 2 44 15:11:34 24.804s
24 Guanyu Zhou 2 44 15:11:53 65.564s
14 Fernando Alonso 2 44 15:11:23 24.346s
81 Oscar Piastri 2 44 15:11:10 23.476s
18 Lance Stroll 2 44 15:11:30 25.025s
27 Nico Hülkenberg 3 44 15:11:43 24.751s
63 George Russell 2 45 15:12:31 25.431s
1 Max Verstappen 2 45 15:12:29 24.246s
4 Lando Norris 2 47 15:15:19 23.983s
24 Guanyu Zhou 3 52 15:25:02 28.375s
63 George Russell 3 54 15:25:19 28.157s
44 Lewis Hamilton 3 54 15:25:24 28.817s
20 Kevin Magnussen 4 54 15:26:25 26.845s
paradas
SG 10 20 30 40 50 60 L70
1
2
I24
I20
M26
4
2
I25
I21
M24
63
3
I24
I20
H9
M17
44
3
I24
I18
M11
H17
81
2
I24
I19
M27
14
2
I24
I19
H27
18
2
I24
I19
H27·+1
3
2
I25
I17
M28·+1
10
2
I24
I15
H31
31
1
I43
M27
27
3
W11
I13
I19
M27
20
4
W6
I18
I16
M13
M17
77
1
I41
M29
22
1
I43
M27
24
3
I23
I20
M8
M18
55
2
I24
I18
M10
23
2
I24
I19
M9
11
2
I24
I18
M9
16
3
I24
I3
H3
I10
2
0
I23
S Soft M Medium H Hard I Intermediate W Wet SC·VSC parada en boxes sanción cumplida en boxes
Carrera · ancho de barra = vueltas con ese juego, ·+N = montado usado con N vueltas previas · fuente OpenF1 (2023+)
Compuestos designados para este Gran Premio
C3 Duro C4 Medio C5 Blando
Pirelli designa tres de sus compuestos secos para cada prueba; cuanto mayor es el número C, más blando es el neumático. Documento FIA ↗
Más puestos ganados en pista
27
+19
P17→P11
10
+14
P15→P9
20
+13
P14→P12
24
+13
P20→P15
77
+11
P19→P13
31
+9
P18→P10
55
+9
P12→P—
3
+8
P5→P8
Más puestos perdidos
Nico Hülkenberg −17 Kevin Magnussen −17 Charles Leclerc −11
Carrera · Suma de posiciones ganadas en pista vuelta a vuelta — se excluyen la vuelta de salida y las vueltas de boxes propias. Datos de vueltas de carrera desde 1996.
PilotoTipoVueltaCumplidaImpuestaMotivo
11 Sergio Pérez Fine €25,000 Car 11 failed to leave the track with serious mechanical difficulties after significantly damaging the rear wing. (The competitor (Oracle Red Bull Racing) is fined €25,000. Additionally, a drop of three grid positio) Documento FIA ↗
€25,000 Car 11 failed to leave the track with serious mechanical difficulties after significantly damaging the rear wing. (The competitor (Oracle Red Bull Racing) is fined €25,000. Additionally, a drop of three grid positio) Documento FIA ↗
63 George Russell No further action Incident between Cars 81 and 63 in Turn 13 and 14. (No further action.) Documento FIA ↗
Incident between Cars 81 and 63 in Turn 13 and 14. (No further action.) Documento FIA ↗
81 Oscar Piastri No further action Incident between Cars 81 and 63 in Turn 13 and 14. (No further action.) Documento FIA ↗
Incident between Cars 81 and 63 in Turn 13 and 14. (No further action.) Documento FIA ↗
4 Lando Norris No further action Alleged leaving the track and gaining an advantage in Turn 1. (No further action.) Documento FIA ↗
Alleged leaving the track and gaining an advantage in Turn 1. (No further action.) Documento FIA ↗
3 Daniel Ricciardo Time penalty 12 26 +5s False Start. (5 second time penalty.) Documento FIA ↗
Vuelta 12 · Cumplida 26 · +5s False Start. (5 second time penalty.) Documento FIA ↗
20 Kevin Magnussen Black-and-white flag warning 63 TRACK LIMITS
Vuelta 63 TRACK LIMITS
16 Charles Leclerc Vueltas eliminadas 2 TRACK LIMITS
Vuelta 2 TRACK LIMITS
16 Charles Leclerc Vueltas eliminadas 33 TRACK LIMITS (PIT)
Vuelta 33 TRACK LIMITS (PIT)
11 Sergio Pérez Vueltas eliminadas 58 TRACK LIMITS (PIT)
Vuelta 58 TRACK LIMITS (PIT)
Vuelta = vuelta en que se impuso la sanción · Cumplida = vuelta en que se cumplió en boxes (en blanco: se sumó al tiempo de carrera)
Time, drive-through and stop-go penalties come from race control messages (OpenF1, 2023+). Parrilla penalties never appear there — the stewards publish them as documents after the session — so they are worked back from the starting grid against the clasificación classification, which gives places actually lost rather than the figure written in the decision.
PilotoTipoVueltaCumplidaImpuestaMotivo
77 Valtteri Bottas Pit lane start The following Power Unit elements have been usados: 3rd Energy Store (ES) 3rd Control Electronics (CE) The rear wing specification has been changed while under Parc Ferme. (Required to start the Carrera from the desde el pit lane.) Documento FIA ↗
The following Power Unit elements have been usados: 3rd Energy Store (ES) 3rd Control Electronics (CE) The rear wing specification has been changed while under Parc Ferme. (Required to start the Carrera from the desde el pit lane.) Documento FIA ↗
24 Guanyu Zhou Pit lane start The rear wing specification has been changed while under Parc Ferme. (Required to start the Carrera from the desde el pit lane.) Documento FIA ↗
The rear wing specification has been changed while under Parc Ferme. (Required to start the Carrera from the desde el pit lane.) Documento FIA ↗
1 Max Verstappen No further action Pit Lane incident. (No further action.) Documento FIA ↗
Pit Lane incident. (No further action.) Documento FIA ↗
Vuelta = vuelta en que se impuso la sanción · Cumplida = vuelta en que se cumplió en boxes (en blanco: se sumó al tiempo de carrera)
Time, drive-through and stop-go penalties come from race control messages (OpenF1, 2023+). Parrilla penalties never appear there — the stewards publish them as documents after the session — so they are worked back from the starting grid against the clasificación classification, which gives places actually lost rather than the figure written in the decision.
PilotoTipoVueltaCumplidaImpuestaMotivo
81 Oscar Piastri No further action Alleged failure to follow the Carrera Director’s Event Notes regarding the escape road instructions at turn 14. (No further action.) Documento FIA ↗
Alleged failure to follow the Carrera Director’s Event Notes regarding the escape road instructions at turn 14. (No further action.) Documento FIA ↗
Vuelta = vuelta en que se impuso la sanción · Cumplida = vuelta en que se cumplió en boxes (en blanco: se sumó al tiempo de carrera)
Time, drive-through and stop-go penalties come from race control messages (OpenF1, 2023+). Parrilla penalties never appear there — the stewards publish them as documents after the session — so they are worked back from the starting grid against the clasificación classification, which gives places actually lost rather than the figure written in the decision.
PilotoTipoVueltaCumplidaImpuestaMotivo
4 Lando Norris No further action Alleged Failure to follow the Carrera Director’s Event Notes regarding the escape road instructions at turn 14. (No further action.) Documento FIA ↗
Alleged Failure to follow the Carrera Director’s Event Notes regarding the escape road instructions at turn 14. (No further action.) Documento FIA ↗
16 Charles Leclerc Fine €5,000 Using Intermediate tyres when the track was not declared lluvia. (The competitor (Scuderia Ferrari) is fined €5,000.) Documento FIA ↗
€5,000 Using Intermediate tyres when the track was not declared lluvia. (The competitor (Scuderia Ferrari) is fined €5,000.) Documento FIA ↗
81 Oscar Piastri Black-and-white flag warning Failure to follow the Carrera Director’s Event Notes regarding the escape road instructions at turn 14. (Warning.) Documento FIA ↗
Failure to follow the Carrera Director’s Event Notes regarding the escape road instructions at turn 14. (Warning.) Documento FIA ↗
Vuelta = vuelta en que se impuso la sanción · Cumplida = vuelta en que se cumplió en boxes (en blanco: se sumó al tiempo de carrera)
Time, drive-through and stop-go penalties come from race control messages (OpenF1, 2023+). Parrilla penalties never appear there — the stewards publish them as documents after the session — so they are worked back from the starting grid against the clasificación classification, which gives places actually lost rather than the figure written in the decision.
PilotoTipoVueltaCumplidaImpuestaMotivo
22 Yuki Tsunoda Fine €10,000 Late attendance of the National Anthem. (The competitor (Visa Cash App RB F1 Team) is fined €10,000.) Documento FIA ↗
€10,000 Late attendance of the National Anthem. (The competitor (Visa Cash App RB F1 Team) is fined €10,000.) Documento FIA ↗
Vuelta = vuelta en que se impuso la sanción · Cumplida = vuelta en que se cumplió en boxes (en blanco: se sumó al tiempo de carrera)
Time, drive-through and stop-go penalties come from race control messages (OpenF1, 2023+). Parrilla penalties never appear there — the stewards publish them as documents after the session — so they are worked back from the starting grid against the clasificación classification, which gives places actually lost rather than the figure written in the decision.
DocTítuloAsuntoPublished(CET)
Event Notes - Pirelli Preview ↗ 2024-06-05 17:15
2024-06-05 17:15 CET
Post-Carrera Checks on Car 04, Monaco GP ↗ 4 Lando Norris 2024-06-05 22:41
4 Lando Norris 2024-06-05 22:41 CET
Carrera Director's Event Notes ↗ 2024-06-06 23:37
2024-06-06 23:37 CET
Car Display Procedure ↗ 2024-06-06 23:53
2024-06-06 23:53 CET
Event Notes - Circuito Map, Pit Lane Drawing and Red Zones ↗ 2024-06-06 23:54
2024-06-06 23:54 CET
PU elements usados per driver up to now ↗ 2024-06-07 15:35
2024-06-07 15:35 CET
RNCs usados per driver up to now ↗ 2024-06-07 15:36
2024-06-07 15:36 CET
Self Scrutineering ↗ 2024-06-07 17:02
2024-06-07 17:02 CET
Car Presentation Submissions ↗ 2024-06-07 17:04
2024-06-07 17:04 CET
Entry List ↗ 2024-06-07 17:32
2024-06-07 17:32 CET
New RNCs for this Competition ↗ 2024-06-07 20:04
2024-06-07 20:04 CET
New PU elements for this Competition ↗ 2024-06-07 20:10
2024-06-07 20:10 CET
P1 Classification ↗ 2024-06-07 20:46
2024-06-07 20:46 CET
Summons - Car 16 - Tyre usage ↗ 16 Charles Leclerc 2024-06-07 23:22
16 Charles Leclerc 2024-06-07 23:22 CET
Summons - Car 4 - Alleged failure to follow Carrera Director's instructions ↗ 4 Lando Norris 2024-06-08 00:01
4 Lando Norris 2024-06-08 00:01 CET
Summons - Car 81 - Alleged failure to follow Carrera Director's instructions ↗ 81 Oscar Piastri 2024-06-08 00:11
81 Oscar Piastri 2024-06-08 00:11 CET
P2 Classification ↗ 2024-06-08 00:15
2024-06-08 00:15 CET
Carrera Director's Note - SC2-SC1 Time ↗ 2024-06-08 00:59
2024-06-08 00:59 CET
Infringement - Car 16 - Tyre Usage ↗ 16 Charles Leclerc 2024-06-08 01:21
16 Charles Leclerc 2024-06-08 01:21 CET
P1 and P2 Scrutineering ↗ 2024-06-08 01:53
2024-06-08 01:53 CET
RNC usados outside allocation ↗ 2024-06-08 01:54
2024-06-08 01:54 CET
Decision - Car 4 - Alleged failure to follow Carrera Director's instructions ↗ 4 Lando Norris 2024-06-08 02:12
4 Lando Norris 2024-06-08 02:12 CET
Infringement - Car 81 - Alleged failure to follow Carrera Director's instructions ↗ 81 Oscar Piastri 2024-06-08 02:21
81 Oscar Piastri 2024-06-08 02:21 CET
Post-Clasificación Procedure ↗ 2024-06-08 19:24
2024-06-08 19:24 CET
P3 Classification ↗ 2024-06-08 19:50
2024-06-08 19:50 CET
Decision - Car 81 - Alleged failure to follow Carrera Director's instructions ↗ 81 Oscar Piastri 2024-06-08 20:25
81 Oscar Piastri 2024-06-08 20:25 CET
Carrera Director's Event Notes V2 ↗ 2024-06-08 21:06
2024-06-08 21:06 CET
Provisional Clasificación Classification ↗ 2024-06-08 23:20
2024-06-08 23:20 CET
Summons - Car 1 - Alleged Pit Lane infringement ↗ 1 Max Verstappen 2024-06-08 23:30
1 Max Verstappen 2024-06-08 23:30 CET
Clasificación Deleted Vuelta Times ↗ 2024-06-08 23:51
2024-06-08 23:51 CET
Clasificación SC2-SC1 Times ↗ 2024-06-09 01:01
2024-06-09 01:01 CET
P3 and Clasificación Scrutineering ↗ 2024-06-09 01:16
2024-06-09 01:16 CET
Decision - Car 1 - Alleged Pit Lane infringement ↗ 1 Max Verstappen 2024-06-09 01:22
1 Max Verstappen 2024-06-09 01:22 CET
Final Clasificación Classification ↗ 2024-06-09 01:25
2024-06-09 01:25 CET
Provisional Starting Parrilla ↗ 2024-06-09 01:30
2024-06-09 01:30 CET
Pre-Carrera Procedure ↗ 2024-06-09 16:37
2024-06-09 16:37 CET
Post-Carrera Procedure ↗ 2024-06-09 16:42
2024-06-09 16:42 CET
Parc Fermé Issues ↗ 2024-06-09 17:55
2024-06-09 17:55 CET
Parts and parameters been replaced and or changed during Parc Fermé ↗ 2024-06-09 17:56
2024-06-09 17:56 CET
Infringement - Car 77 - Changes made during Parc Ferme ↗ 77 Valtteri Bottas 2024-06-09 17:58
77 Valtteri Bottas 2024-06-09 17:58 CET
Infringement - Car 24 - Changes made during Parc Ferme ↗ 24 Guanyu Zhou 2024-06-09 17:58
24 Guanyu Zhou 2024-06-09 17:58 CET
Final Starting Parrilla ↗ 2024-06-09 18:00
2024-06-09 18:00 CET
Provisional Carrera Classification ↗ 2024-06-09 22:06
2024-06-09 22:06 CET
Decision - Car 4 - Leaving the track and gaining an advantage ↗ 4 Lando Norris 2024-06-09 22:08
4 Lando Norris 2024-06-09 22:08 CET
Summons - Car 22 - National Anthem ↗ 22 Yuki Tsunoda 2024-06-09 22:17
22 Yuki Tsunoda 2024-06-09 22:17 CET
Summons - Car 81 - Incident with Car 63 ↗ 81 Oscar Piastri 2024-06-09 22:18
81 Oscar Piastri 2024-06-09 22:18 CET
Summons - Car 63 - Incident with Car 81 ↗ 63 George Russell 2024-06-09 22:18
63 George Russell 2024-06-09 22:18 CET
Summons - Car 11 - Unsafe Condition ↗ 11 Sergio Pérez 2024-06-09 22:18
11 Sergio Pérez 2024-06-09 22:18 CET
Summons - Octane Racing Group ↗ 2024-06-09 22:31
2024-06-09 22:31 CET
Infringement - Car 3 - False Start (Corrected) ↗ 3 Daniel Ricciardo 2024-06-09 23:13
3 Daniel Ricciardo 2024-06-09 23:13 CET
Carrera Deleted Vuelta Times ↗ 2024-06-09 23:15
2024-06-09 23:15 CET
Carrera Scrutineering ↗ 2024-06-10 00:12
2024-06-10 00:12 CET
Decision - Car 81 - Incident with Car 63 ↗ 81 Oscar Piastri 2024-06-10 02:03
81 Oscar Piastri 2024-06-10 02:03 CET
Decision - Car 63 - Incident with Car 81 ↗ 63 George Russell 2024-06-10 02:04
63 George Russell 2024-06-10 02:04 CET
Infringement - Car 22 - Late attendance of National Anthem ↗ 22 Yuki Tsunoda 2024-06-10 02:07
22 Yuki Tsunoda 2024-06-10 02:07 CET
Infringement - Car 11 - Unsafe condition ↗ 11 Sergio Pérez 2024-06-10 02:28
11 Sergio Pérez 2024-06-10 02:28 CET
Decision - Octane Racing Group ↗ 2024-06-10 02:51
2024-06-10 02:51 CET
Final Carrera Classification ↗ 2024-06-10 02:55
2024-06-10 02:55 CET
Campeonato Puntos ↗ 2024-06-10 03:00
2024-06-10 03:00 CET
FIA official decisions and documents (fia.com) · PDF original PDF links
Record Basis · Calculation basis
Carrera order is the final classification(post-race penalties applied) · clasificación session data 2003+ · lap times 1996+ · pit stops 2012+ (pit-lane transit, not stationary time) · Abandono = Finished(Finished·+N Vueltas) non-Finished statuses
Fuentes de datos: Jolpica-F1 (Ergast compatible API) · weather·Dirección de carrera OpenF1 (2023+) · Last fetched: 2026-09-05 14:15